Weather in Turin

Italy     45˚04′08″N   7˚41′19″E
temp.,
°C
wind,
m/s
gust,
m/s
humid.,
%
clouds,
%
prec.,
mm/h
press.,
hPa
HPBL,
m
1 december, tue
tue101:00+5˚e117292 0.0 1021150
04:00+5˚se117286 0.0 1020313
07:00+5˚ese117093 0.0 1019374
10:00+6˚ese116797 0.0 1016402
13:00+7˚ne336272 0.0 1014893
16:00+5˚nne3572100 0.2 1012703
19:00+4˚nw137599 0.3 1013414
22:00+4˚n1279100 0.3 1014425
2 december, wed
wed201:00+4˚s2286100 1.3 1013171
04:00+3˚s1293100 1.3 1012166
07:00+3˚ssw2392100 2.5 1011204
10:00+3˚s1294100 3.3 1011179
13:00+4˚sse1192100 8.2 1010180
16:00+4˚wsw1293100 0.8 1010127
19:00+4˚w1190100 0.9 1011169
22:00+4˚w128998 0.0 1012118
3 december, thu
thu301:00+3˚sw249198 0.0 1010147
04:00+3˚ssw2288100 0.0 100988
07:00+2˚s1280100 0.0 100949
10:00+4˚s016724 0.0 1008154
13:00+7˚ese115524 0.0 1006463
16:00+6˚ene12643 0.0 1005353
19:00+3˚e128312 0.0 100680
22:00+3˚nnw118487 0.0 1005187
4 december, fri
fri401:00+3˚n129493 0.2 1003205
04:00+3˚nnw2395100 0.9 1000199
07:00+2˚n2495100 3.0 998282
10:00+1˚nne2395100 4.2 996198
13:00+1˚nw2299100 10.8 99396
16:00+2˚wsw1199100 1.7 99253
19:00+2˚s1299100 1.8 993105
22:00+2˚wsw2496100 0.0 993194
5 december, sat
sat501:00+2˚wsw1196100 0.1 99382
04:00+3˚ssw2393100 0.0 991145
07:00+2˚w1294100 2.8 990134
10:00+3˚sw2391100 0.4 992228
13:00+5˚ene1182100 0.6 993236
16:00+4˚e228740 0.0 994242
19:00+3˚ene119245 0.0 99760
22:00+3˚sw119352 0.0 99866